Home   Weather   Mazari Sharif   Past weeks

Flag for Afghanistan Past Weather in Mazari Sharif, Afghanistan — Yesterday and Last 2 Weeks

Now
54 °F

Sunny.


Feels Like: 54 °F
Forecast: 35 / 53 °F
Wind: 1 mph from North

Location: Termez Airport

Current Time: Jan 18, 2017 at 5:00:06 pm

Latest Report: Jan 18, 2017 at 4:00 pm


Visibility: 10 mi

Pressure: 30.33 "Hg

Humidity: 38%

Dew Point: 28 °F

Location of Mazari SharifLocation

Past Weather in Mazari Sharif — Graph

°F

Mazari Sharif Temperature Yesterday

Maximum temperature yesterday: 50 °F (at 12:30 pm)
Minimum temperature yesterday: 30 °F (at 12:30 am)
Average temperature yesterday: 39 °F

High & Low Weather Summary for the Past Weeks

 TemperatureHumidityPressure
High57 °F (Jan 11, 2:00 pm)100% (Jan 6, 6:00 am)30.39 "Hg (Jan 6, 6:00 am)
Low27 °F (Jan 10, 5:00 am)18% (Jan 10, 3:30 pm)29.98 "Hg (Jan 14, 1:00 am)
Average39 °F73%30.22 "Hg
* Reported Jan 3 3:30 pm — Jan 18 3:30 pm, Mazari Sharif, Weather by CustomWeather, © 2017

Note: Actual official high and low records may vary slightly from our data, if they occured in-between our weather recording intervals... More about our weather records

Advertising

Mazari Sharif Weather History for the Previous 24 Hours

Scroll right to see more
 ConditionsComfort  
Time TempWeatherWind HumidityBarometerVisibility
3:30 pm
Wed, Jan 18
54 °FPassing clouds.5 mph38%30.33 "HgN/A
3:00 pm54 °FPassing clouds.7 mph35%30.33 "HgN/A
2:30 pm54 °FPassing clouds.6 mph38%30.33 "HgN/A
2:00 pm54 °FPassing clouds.3 mph44%30.33 "HgN/A
1:30 pm52 °FSunny.3 mph41%30.33 "Hg10 mi
1:00 pm52 °FSunny.8 mph38%30.33 "Hg10 mi
12:30 pm52 °FPassing clouds.7 mph44%30.36 "HgN/A
12:00 pm50 °FSunny.5 mph43%30.36 "Hg10 mi
11:30 am48 °FPassing clouds.6 mph50%30.39 "HgN/A
11:00 am46 °FSunny.6 mph57%30.39 "Hg10 mi
10:30 am46 °FSunny.7 mph53%30.39 "Hg10 mi
10:00 am45 °FPassing clouds.6 mph61%30.39 "HgN/A
9:30 am41 °FFog.6 mph70%30.39 "Hg3 mi
9:00 am37 °FFog.5 mph81%30.39 "Hg2 mi
8:30 am34 °FFog.3 mph87%30.39 "Hg2 mi
8:00 am32 °FIce fog.3 mph87%30.36 "Hg1 mi
7:30 am32 °FIce fog.3 mph87%30.36 "Hg2 mi
7:00 am32 °FIce fog.3 mph87%30.36 "Hg2 mi
5:30 am32 °FIce fog.5 mph87%30.33 "Hg3 mi
5:00 am32 °FIce fog.5 mph93%30.33 "Hg3 mi
4:30 am34 °FFog.1 mph87%30.33 "Hg3 mi
4:00 am34 °FClear.3 mph87%30.33 "Hg4 mi
3:30 am34 °FFog.2 mph87%30.33 "Hg3 mi
2:30 am36 °FClear.3 mph81%30.33 "Hg4 mi
2:00 am36 °FClear.5 mph81%30.33 "Hg4 mi
1:30 am37 °FClear.3 mph75%30.30 "Hg4 mi
12:30 am37 °FClear.3 mph75%30.30 "Hg4 mi
12:00 am37 °FClear.3 mph75%30.30 "Hg4 mi
11:30 pm
Tue, Jan 17
37 °FClear.2 mph75%30.30 "Hg4 mi
11:00 pm37 °FClear.2 mph75%30.30 "Hg5 mi
10:00 pm37 °FClear.No wind70%30.30 "Hg5 mi
9:30 pm37 °FClear.1 mph75%30.30 "Hg4 mi
9:00 pm37 °FClear.3 mph75%30.30 "Hg4 mi
8:30 pm37 °FClear.5 mph70%30.30 "Hg4 mi
8:00 pm39 °FClear.5 mph65%30.30 "Hg5 mi
7:30 pm41 °FClear.5 mph61%30.30 "Hg4 mi
7:00 pm41 °FClear.5 mph61%30.30 "Hg4 mi
6:30 pm41 °FClear.6 mph61%30.27 "Hg4 mi
6:00 pm41 °FHaze.5 mph66%30.27 "Hg3 mi
5:30 pm43 °FClear.5 mph61%30.27 "Hg4 mi
5:00 pm45 °FClear.5 mph57%30.24 "Hg4 mi
Weather by CustomWeather, © 2017

See weather overviewHow to use our weather pages